STARLINK-11255, 60730

Orbit data source: Space-Track

STARLINK-11255, 60730 is a payload satellite owned by SpaceX/Seattle (US) in LEO that was launched on Wed, 28 Aug 2024 UTC via an FALCON 9 launch vehicle from the Air Force Eastern Test Range (AFETR). Payload-class satellites include a variety of spacecraft equipped with specific instruments for various scientific and technological missions. These include communications satellites like Starlink; space stations such as the ISS; scientific satellites like the Hubble; Earth observation satellites from companies like Planet Labs, Umbra, and HawkEye 360; GPS; miniature CubeSats for education and research; and military/defense satellites.

Loading next visibility...
Identifier
60730, 2024-152L
Orbit
LEO
Last TLE update
18 hours ago
Origin
Manufacturer
SpaceX/Seattle
Mission
Operational Commercial Communications
Bus & Motor
STARLINK V2M, Unknown motor
Mass
730 kg wet, ~700 kg dry
Launch date (UTC)
2024-08-28 (11 months ago)
Launch vehicle
FALCON 9
Launch site
Air Force Eastern Test Range (AFETR)
Object type
Payload
Rocket body
Debris
Shape & HBR
Box + 2 Pan, 14.5 m
Radar Cross Section
36.964 m², Large (>1 m²)

Expand to show TLE details & history

TLE from 18 hours ago
0 STARLINK-11255
1 60730U 24152L   25199.22850506  .00002560  00000-0  25999-4 0  9995
2 60730  53.1599 191.8162 0001327 112.9538 247.1620 15.69694862 52027
Epoch: 2025-07-18T05:29Z
TLE epoch observation values (Epoch: 2025-07-18T05:29:02.837Z)
Latitude
-0.00001°
Longitude
173.2714°
Altitude
361.032 km
Speed
7.694 km/s
True Right ascension
12h 47m 15s
True Declination
0° 00' 00"
Sunlit
Object was in daylight at epoch
Visualization orbit readout
Latitude
-43.40241°
Longitude
34.40404°
Altitude
374.81 km
Speed
7.684 km/s
Apparent Right ascension
01h 49m 02s
Apparent Declination
-44° 30' 24"
Sunlit
Object is in daylight
Visualization observer readout
Local Sidereal Time
12:05:56
Azimuth
247.957° W
Elevation
-70.455°
Doppler factor
1
Orbital elements
Apogee altitude
360.925 km
Perigee altitude
359.137 km
Semi-major axis
6,738.168 km
Eccentricity
0.00013
Inclination
53.1599°
RAAN
191.8162°
Arg. of periapsis
112.9538°
True anomaly
247.14799°
Mean anomaly
247.162°
Eccentric anomaly
247.15499°
Mean motion
3.92401 °/min
Orbital period
91.74 mins
BSTAR
0.000025999
Loading maneuver chart data...
Loading SW <> Apogee altitude chart data...
Loading historical data...
Loading historical data...
Loading historical data...
Loading historical data...
Loading historical data...
Loading historical data...
Loading historical data...
|